Wind_Speed
10 10 11 11 11 11 11 10 9 8 8 7 7 7 7 7 6 7 8 9 9 9 10 10 10 11 11 12 13 14 15 17 18 19 20 21 22 23 25 26 27 28 29 29
9 10 11 11 10 11 11 10 9 9 8 7 7 7 7 7 7 8 9 9 10 10 11 12 12 13 13 15 16 17 18 19 20 21 22 23 25 26 28 28 29 30 31 32
11 12 11 10 9 10 11 10 10 9 9 9 8 7 7 8 8 9 10 11 11 12 13 13 14 15 16 17 18 19 20 21 22 24 25 26 28 29 30 31 32 33 34 34
13 13 12 9 10 11 11 11 11 10 10 9 8 9 9 9 10 10 11 12 12 13 14 15 16 17 18 19 20 21 22 23 25 26 28 29 31 32 33 34 35 36 37 37
15 15 13 11 11 12 12 11 11 11 10 10 11 11 10 11 12 12 13 13 14 15 16 17 19 19 20 21 22 24 25 26 28 29 31 32 33 34 35 36 37 38 39 39
16 16 14 12 13 13 13 12 12 12 12 12 12 12 12 14 14 14 15 16 16 17 18 19 21 22 23 24 25 26 28 29 30 32 33 34 35 36 38 39 40 41 41 41
17 17 15 14 14 14 14 12 13 14 14 14 14 15 16 16 17 17 17 18 19 20 22 23 24 25 26 28 28 29 30 32 33 35 36 36 38 39 40 41 42 42 42 42
19 18 15 15 16 15 16 16 16 16 16 17 17 18 18 18 19 20 21 22 22 23 24 25 27 28 29 30 31 32 34 35 36 37 38 39 40 42 43 43 43 43 43 43
21 19 19 19 18 19 19 19 19 18 19 19 20 20 21 21 22 23 24 25 26 26 27 28 29 31 31 32 33 34 36 37 38 39 41 42 43 44 44 44 45 44 44 44
23 22 21 21 21 21 22 22 22 22 22 23 23 23 24 24 25 26 27 27 28 29 30 31 32 33 34 35 36 37 38 39 40 41 43 44 44 45 45 46 46 46 46 46
27 25 25 25 24 25 25 25 25 25 26 26 27 27 27 28 28 29 30 30 31 32 33 34 35 35 36 37 38 39 40 41 42 44 45 45 46 46 47 48 48 48 48 48
29 28 29 28 28 28 28 28 28 29 29 29 30 30 30 31 31 32 32 33 34 35 35 36 37 38 38 39 40 41 42 44 45 46 47 47 48 48 49 49 49 49 49 50
31 31 31 31 30 31 31 31 31 32 32 32 32 32 32 33 33 34 34 35 36 36 37 37 38 39 40 42 43 44 45 46 47 48 48 49 49 49 49 49 50 50 51 52
32 32 32 32 32 33 33 34 34 34 33 33 34 34 34 35 35 36 37 37 37 38 39 39 40 41 42 44 45 46 46 47 48 48 49 50 51 51 52 52 51 51 52 53
34 35 35 34 35 35 35 34 34 34 34 34 35 36 36 37 37 37 38 38 38 39 40 41 42 43 44 44 45 46 47 49 50 50 51 52 52 53 53 53 53 53 54 55
35 35 35 35 34 35 35 35 35 35 36 36 36 36 37 37 38 38 38 39 39 40 41 42 43 44 45 46 47 48 50 51 51 52 53 54 54 55 55 55 55 56 56 57
35 36 36 35 35 35 36 36 36 36 37 37 38 38 39 39 40 40 40 41 42 42 43 44 45 46 47 48 50 51 53 54 54 54 55 55 56 57 57 57 57 58 58 59
35 35 35 36 36 36 36 36 37 37 37 38 39 39 40 41 41 41 42 43 43 44 45 46 47 49 50 52 53 54 55 56 56 56 57 57 57 58 58 59 59 60 60 60
36 36 36 36 36 36 37 37 38 38 39 39 39 40 41 42 42 43 44 45 45 46 47 49 50 52 53 54 56 56 57 57 58 59 59 59 59 59 60 60 60 60 60 59
38 38 38 38 38 38 39 39 40 41 41 41 41 42 42 43 44 45 46 47 48 49 50 52 53 54 55 56 57 58 59 59 60 61 61 61 61 61 60 60 60 60 59 59
40 40 40 41 41 41 41 41 42 42 43 44 44 44 44 45 46 47 48 49 50 51 52 53 54 56 57 58 59 60 61 61 62 62 62 62 62 61 61 60 59 59 58 57
42 42 42 43 43 43 43 44 44 45 45 45 45 46 46 47 48 49 51 51 52 53 54 55 57 58 59 60 61 62 62 63 62 62 62 62 61 61 60 59 58 57 56 55
44 45 45 45 45 45 46 46 47 47 47 47 47 48 49 50 50 51 52 53 55 56 57 58 59 60 61 62 63 64 64 63 62 62 61 61 60 59 58 57 56 55 54 53
46 46 47 47 47 48 48 48 48 48 49 49 50 51 51 52 53 54 55 56 57 58 59 60 61 63 64 64 64 64 63 62 61 60 59 59 57 56 55 54 53 53 52 50
50 49 49 49 49 50 50 50 51 51 51 52 53 53 54 55 55 56 57 58 59 60 61 62 63 64 64 64 63 62 61 59 58 57 57 56 54 53 52 51 50 49 47 46
52 52 52 52 51 51 52 53 53 53 54 54 55 56 57 57 58 59 59 61 61 62 63 63 64 63 63 62 61 59 58 56 54 54 53 52 51 50 49 48 47 46 45 44
54 54 55 55 54 54 54 55 55 56 56 57 57 58 59 59 60 61 61 62 62 62 62 62 61 60 59 58 57 55 53 52 51 51 51 50 49 47 46 45 44 44 43 42
Wind_Direction
207 213 219 223 228 232 238 244 251 255 258 260 258 262 267 270 272 271 272 276 278 274 273 276 278 281 285 291 295 298 300 303 306 308 308 310 311 312 312 312 313 313 313 312
223 225 227 229 236 241 245 251 257 257 261 260 261 265 271 274 276 279 280 282 281 277 274 277 279 283 288 291 294 297 300 303 304 306 307 308 310 311 311 311 311 312 312 311
234 237 239 233 239 245 249 254 258 255 255 258 262 270 276 277 277 280 283 285 285 281 278 279 281 284 289 292 293 296 298 301 303 305 306 307 309 310 310 311 311 311 311 310
242 242 242 242 241 246 252 255 256 255 256 261 267 272 279 283 282 283 284 285 285 285 283 282 283 285 289 293 295 296 298 301 303 305 306 307 308 309 310 311 310 310 309 309
248 248 246 243 246 249 252 252 255 257 258 263 270 275 280 283 282 285 287 287 286 287 287 286 285 287 289 292 294 297 299 301 303 304 306 307 308 308 309 309 309 309 308 307
251 252 249 243 246 249 252 253 256 259 262 267 271 276 280 283 286 286 287 288 287 289 290 290 291 291 291 292 294 297 299 300 302 303 304 305 306 307 308 308 308 307 307 306
252 254 253 250 250 251 254 257 260 262 265 270 274 276 278 283 287 287 288 290 290 291 292 293 293 293 293 294 295 297 299 301 302 303 304 305 306 306 307 307 307 306 306 306
253 255 255 255 255 256 258 261 264 265 267 270 273 277 280 282 286 289 289 290 291 291 292 294 294 294 295 295 296 297 299 301 302 303 304 305 306 306 307 307 306 306 306 305
254 257 257 257 258 259 261 263 265 267 270 272 275 278 280 283 286 288 290 291 291 291 292 294 296 296 296 296 297 298 299 300 302 303 304 305 306 306 306 306 306 306 305 305
257 257 258 259 260 262 264 265 267 269 270 272 275 277 281 284 286 288 290 292 292 292 293 294 296 297 296 296 297 299 300 300 302 303 304 305 306 306 306 306 305 305 304 304
259 259 259 260 262 263 265 266 268 270 271 273 275 278 280 283 285 287 289 291 292 293 292 293 294 296 296 296 297 298 299 300 302 303 304 304 305 305 305 305 305 305 304 304
259 259 260 261 262 264 266 267 268 270 272 274 276 278 280 282 283 285 287 289 291 293 293 293 294 295 296 296 297 297 299 300 301 302 303 303 303 304 304 304 304 304 305 305
259 260 261 263 264 264 266 267 268 270 271 273 276 278 279 281 283 284 286 288 290 291 293 293 294 295 295 296 296 297 298 299 300 301 302 302 303 303 303 303 303 303 303 304
260 261 262 263 264 265 266 268 269 270 272 273 275 277 279 281 283 284 286 287 288 290 291 292 294 295 296 297 296 297 297 299 300 301 301 302 302 302 303 303 302 302 303 303
260 261 262 262 264 265 267 268 269 270 272 273 274 277 279 280 282 283 285 286 287 289 290 292 293 294 296 297 298 298 299 299 300 301 301 302 302 302 302 302 302 302 302 303
261 263 263 263 264 265 266 267 269 270 272 273 275 277 278 279 281 283 284 286 287 288 290 291 292 294 296 297 298 299 300 300 301 301 301 301 302 302 302 302 302 303 303 303
262 263 263 264 265 266 268 269 270 271 272 273 275 276 277 279 281 282 284 285 286 287 289 291 292 294 296 297 298 299 300 300 301 301 302 302 302 302 302 302 302 302 303 303
262 263 264 265 266 266 268 269 270 272 273 274 275 276 278 279 280 281 283 284 286 287 289 290 292 294 296 297 299 300 301 301 301 301 301 302 302 303 302 302 302 302 303 303
263 264 265 266 266 267 268 269 270 272 273 275 276 277 278 279 280 281 283 285 286 287 289 290 292 294 296 297 299 300 301 302 302 302 302 302 302 302 302 302 302 302 303 303
261 262 264 265 266 267 268 269 270 271 273 275 276 277 278 279 280 281 283 285 286 287 289 290 292 294 295 297 298 300 301 302 302 302 302 302 302 301 301 301 301 302 303 302
261 263 264 266 266 267 268 269 270 272 273 275 276 277 278 279 280 282 283 284 286 287 289 290 292 294 295 297 299 300 301 301 302 302 302 302 301 301 301 301 301 301 302 302
263 264 266 267 268 269 270 271 272 273 274 275 276 277 278 280 281 282 283 285 286 287 288 290 292 294 295 297 298 299 300 300 301 301 302 302 302 301 300 300 300 300 301 302
263 264 266 267 268 269 271 272 272 273 274 275 276 277 278 280 281 282 284 285 286 287 289 290 292 294 295 297 298 299 300 300 301 301 301 301 301 300 300 300 300 300 301 301
266 266 266 267 268 269 270 271 272 273 274 275 276 277 278 280 281 283 284 285 287 288 290 291 292 294 296 297 298 299 299 299 300 300 300 300 300 300 300 301 301 301 301 301
267 267 267 267 268 269 269 270 272 273 274 275 276 277 279 280 282 283 285 286 287 289 290 291 293 295 296 297 297 298 298 298 298 299 299 300 300 300 300 300 301 302 302 301
266 267 268 268 268 269 269 270 271 273 275 276 277 278 280 281 282 284 285 286 287 288 290 291 293 294 295 296 296 297 297 297 297 298 300 300 300 300 299 299 300 301 302 301
266 266 267 268 269 270 271 272 273 273 274 276 277 278 280 282 283 284 285 286 287 288 290 291 292 293 294 295 295 296 296 297 297 299 300 300 300 299 299 299 300 301 301 301
Height
5841 5841 5842 5843 5843 5844 5844 5845 5846 5847 5846 5847 5846 5846 5846 5845 5844 5843 5843 5842 5841 5841 5841 5841 5841 5841 5840 5840 5839 5837 5836 5835 5833 5831 5829 5826 5824 5821 5818 5815 5812 5808 5805 5801
5839 5840 5840 5841 5842 5842 5843 5843 5843 5844 5844 5844 5844 5844 5843 5842 5841 5841 5840 5839 5838 5838 5838 5838 5838 5837 5837 5836 5835 5834 5832 5830 5828 5826 5823 5821 5818 5815 5811 5808 5805 5801 5797 5793
5837 5837 5838 5839 5840 5840 5840 5841 5841 5841 5843 5842 5842 5841 5840 5840 5839 5838 5837 5836 5835 5835 5834 5834 5834 5833 5833 5832 5830 5829 5827 5825 5823 5820 5817 5815 5811 5808 5804 5801 5797 5793 5789 5784
5834 5835 5835 5839 5837 5837 5837 5838 5838 5839 5839 5839 5839 5839 5838 5837 5836 5835 5834 5833 5832 5831 5831 5830 5830 5829 5828 5827 5825 5823 5821 5819 5816 5814 5811 5807 5804 5800 5796 5792 5788 5784 5779 5775
5831 5831 5832 5835 5835 5834 5834 5835 5835 5835 5836 5836 5836 5835 5835 5834 5833 5832 5831 5830 5829 5828 5827 5826 5825 5824 5823 5821 5819 5817 5815 5812 5809 5806 5803 5800 5796 5792 5788 5784 5779 5774 5769 5764
5827 5827 5829 5832 5831 5830 5832 5832 5832 5832 5832 5832 5832 5832 5832 5830 5829 5828 5827 5826 5825 5824 5823 5821 5820 5818 5817 5815 5813 5810 5808 5805 5802 5798 5795 5791 5787 5783 5778 5774 5769 5764 5759 5753
5822 5822 5824 5827 5826 5827 5828 5829 5828 5828 5828 5828 5828 5828 5828 5826 5825 5824 5822 5821 5820 5819 5817 5816 5814 5812 5810 5808 5805 5803 5800 5797 5793 5789 5786 5782 5778 5773 5768 5763 5758 5753 5748 5743
5817 5818 5822 5821 5822 5823 5823 5823 5823 5823 5823 5823 5823 5822 5822 5821 5820 5818 5817 5816 5814 5813 5811 5809 5807 5805 5802 5800 5797 5794 5791 5788 5784 5780 5776 5772 5767 5762 5757 5752 5746 5741 5736 5731
5813 5815 5815 5815 5816 5816 5817 5817 5817 5817 5817 5817 5817 5816 5816 5815 5814 5812 5811 5809 5807 5805 5803 5801 5799 5797 5794 5791 5788 5785 5782 5778 5774 5770 5766 5761 5756 5751 5745 5740 5734 5729 5724 5719
5806 5808 5808 5809 5809 5810 5810 5810 5811 5811 5811 5811 5810 5810 5809 5808 5807 5805 5803 5801 5799 5797 5795 5793 5790 5788 5785 5782 5779 5776 5772 5768 5764 5760 5755 5750 5745 5739 5733 5728 5722 5717 5712 5707
5798 5800 5801 5802 5802 5803 5803 5803 5803 5803 5803 5803 5802 5802 5801 5800 5799 5797 5795 5793 5791 5789 5786 5784 5781 5778 5775 5772 5769 5765 5762 5757 5753 5748 5744 5738 5733 5727 5721 5716 5709 5704 5699 5693
5790 5792 5792 5793 5794 5794 5794 5795 5795 5795 5795 5794 5794 5793 5792 5791 5790 5788 5786 5784 5782 5779 5777 5774 5771 5768 5765 5761 5758 5754 5751 5746 5742 5737 5731 5726 5721 5716 5709 5703 5697 5691 5685 5679
5782 5782 5783 5784 5785 5785 5785 5785 5785 5785 5785 5785 5784 5784 5783 5782 5780 5778 5777 5774 5772 5769 5767 5764 5761 5757 5754 5750 5747 5743 5739 5734 5729 5724 5719 5713 5708 5703 5698 5692 5685 5678 5672 5666
5772 5773 5773 5774 5775 5775 5775 5775 5775 5776 5775 5775 5774 5773 5772 5771 5770 5768 5766 5764 5762 5759 5756 5753 5750 5746 5742 5739 5735 5731 5726 5721 5716 5711 5706 5700 5695 5689 5683 5678 5673 5667 5660 5652
5762 5763 5763 5764 5764 5765 5765 5765 5765 5765 5765 5765 5764 5763 5762 5760 5758 5757 5755 5753 5751 5748 5745 5742 5739 5735 5731 5727 5723 5718 5713 5709 5704 5698 5693 5687 5681 5675 5669 5663 5657 5652 5646 5639
5751 5752 5753 5753 5754 5754 5754 5754 5754 5754 5754 5753 5752 5752 5750 5749 5747 5745 5743 5741 5739 5737 5733 5730 5727 5723 5719 5715 5710 5706 5701 5695 5690 5684 5679 5673 5667 5661 5655 5648 5642 5636 5630 5623
5740 5741 5742 5742 5743 5743 5743 5743 5743 5743 5742 5742 5741 5740 5739 5737 5736 5734 5732 5729 5727 5724 5721 5718 5714 5710 5706 5702 5697 5692 5687 5682 5676 5670 5664 5658 5652 5645 5639 5633 5627 5620 5614 5606
5729 5730 5730 5731 5732 5732 5732 5732 5732 5731 5731 5730 5729 5728 5726 5725 5723 5721 5719 5717 5714 5712 5708 5705 5701 5697 5693 5688 5683 5678 5673 5667 5661 5655 5649 5643 5636 5630 5623 5617 5610 5603 5597 5590
5717 5718 5719 5719 5720 5720 5720 5720 5720 5719 5719 5718 5717 5716 5714 5713 5711 5709 5707 5704 5701 5699 5695 5691 5687 5683 5679 5674 5668 5663 5657 5652 5646 5640 5633 5627 5620 5614 5607 5600 5593 5586 5579 5572
5705 5706 5706 5707 5707 5708 5708 5708 5707 5707 5706 5705 5704 5703 5701 5700 5698 5696 5693 5691 5688 5684 5681 5677 5673 5669 5664 5659 5653 5648 5642 5636 5630 5623 5617 5610 5604 5597 5590 5583 5576 5570 5563 5556
5693 5693 5693 5694 5694 5695 5695 5694 5694 5693 5693 5692 5691 5689 5688 5686 5684 5681 5679 5676 5673 5669 5666 5662 5658 5653 5648 5643 5638 5632 5626 5619 5613 5606 5600 5593 5587 5580 5573 5567 5560 5553 5546 5540
5679 5680 5680 5680 5681 5681 5681 5680 5680 5679 5678 5677 5676 5675 5673 5671 5669 5666 5664 5661 5658 5654 5650 5646 5642 5637 5632 5626 5621 5615 5609 5602 5596 5589 5583 5576 5569 5563 5556 5550 5543 5537 5530 5524
5665 5665 5666 5666 5666 5666 5666 5665 5665 5664 5663 5662 5661 5659 5658 5656 5653 5651 5649 5645 5641 5638 5634 5630 5625 5620 5615 5609 5603 5597 5591 5585 5578 5572 5565 5559 5552 5546 5539 5533 5527 5521 5515 5509
5649 5650 5650 5650 5651 5651 5650 5650 5649 5648 5648 5646 5645 5643 5641 5639 5637 5634 5631 5628 5624 5620 5616 5612 5607 5602 5596 5591 5585 5579 5573 5567 5561 5554 5548 5542 5535 5529 5523 5517 5511 5505 5500 5494
5633 5633 5634 5634 5634 5634 5634 5634 5633 5632 5631 5630 5628 5626 5624 5622 5620 5617 5613 5610 5606 5602 5598 5593 5588 5583 5577 5572 5566 5560 5555 5549 5543 5537 5532 5526 5520 5514 5508 5503 5497 5492 5486 5481
5616 5616 5616 5616 5617 5616 5616 5616 5615 5615 5613 5612 5610 5608 5606 5604 5601 5598 5595 5591 5587 5583 5579 5574 5569 5564 5559 5553 5548 5543 5537 5532 5526 5521 5516 5511 5505 5500 5494 5489 5484 5479 5474 5469
5597 5598 5598 5598 5598 5598 5598 5597 5597 5596 5595 5593 5592 5590 5587 5585 5582 5579 5576 5572 5568 5564 5560 5555 5551 5546 5541 5536 5531 5526 5521 5516 5511 5506 5502 5497 5491 5486 5481 5476 5471 5466 5461 5457